Regional Weather Roundup
Issued by NWS

Home | Current Version | Previous Version | Text Only | Print | Product List | Glossary On
Versions: 1 2 3 4 5 6 7 8 9 10 11 12 13 14 15 16 17 18 19 20 21 22 23 24 25 26 27 28 29 30 31 32 33 34 35 36 37 38 39 40 41 42 43 44 45 46 47 48 49 50
000
ASUS43 KDTX 241301
RWRMI
MICHIGAN HOURLY REGIONAL WEATHER ROUNDUP
NATIONAL WEATHER SERVICE DETROIT/PONTIAC MI
900 AM EDT WED AUG 24 2016

NOTE: "FAIR" INDICATES FEW OR NO CLOUDS BELOW 12,000 FEET WITH NO
SIGNIFICANT WEATHER AND/OR OBSTRUCTION TO VISIBILITY.

MIZ047>049-052>055-059>063-066>070-074>076-081>083-241400-
SOUTHEAST LOWER MICHIGAN

CITY           SKY/WX    TMP DP  RH WIND       PRES   REMARKS
ADRIAN         SUNNY     65  62  90 S7        30.14F
ALMA           CLOUDY    67  64  89 S9        30.07S
ANN ARBOR      SUNNY     68  62  81 S9        30.13F
BAD AXE        SUNNY     68  62  79 S10       30.11F
CARO           SUNNY     69  63  81 S7        30.10F
DETROIT CITY   SUNNY     73  65  75 S9        30.14F
DETROIT        MOSUNNY   71  63  75 S12       30.15F
FLINT          SUNNY     73  61  65 S13       30.10F
GROSSE ILE     SUNNY     74  65  73 S14       30.14F
HILLSDALE      SUNNY     67  61  79 S7        30.12F
HOWELL         SUNNY     69  62  77 S9        30.12F

CITY           SKY/WX    TMP DP  RH WIND       PRES   REMARKS
JACKSON        SUNNY     70  63  78 S10       30.11F
LAMBERTVILLE   CLOUDY    69  61  76 S6        30.15F
LANSING        PTSUNNY   70  59  68 S13       30.08F
LAPEER         NOT AVBL
MASON          SUNNY     68  61  79 SE7       30.10F
MONROE         MOSUNNY   69  63  79 S10       30.14F
PONTIAC        MOSUNNY   69  60  73 S12       30.13F
PORT HURON     SUNNY     70  66  88 S8        30.14F
TRI CITIES     PTSUNNY   69  62  78 S12       30.08F
MIDLAND        CLOUDY    68  60  76 S9        30.05F
TROY           SUNNY     73  62  68 S9        30.15F
SAGINAW HB     SUNNY     70  61  73 S10       30.07F
$$
MIZ043>046-050>051-056>058-064>065-071>073-077>080-241400-
SOUTHWEST LOWER MICHIGAN

CITY           SKY/WX    TMP DP  RH WIND       PRES   REMARKS
BATTLE CREEK   PTSUNNY   67  62  84 S13       30.08F
BENTON HARBOR  CLOUDY    73  64  73 S10       30.03S
BIG RAPIDS     CLOUDY    67  63  87 S7        30.02F
COLDWATER      CLOUDY    67  63  85 SE5       30.11S
FREMONT        PTSUNNY   69  64  84 S7        30.00S
HOLLAND        CLOUDY    72  65  78 S12       30.03S
GRAND RAPIDS   PTSUNNY   71  63  75 S14       30.04F
IONIA          CLOUDY    68  60  76 S9        30.05F
KALAMAZOO      MOSUNNY   71  61  70 S13       30.06F
LUDINGTON      CLOUDY    71  67  88 S12G21    29.94F
MARSHALL       CLOUDY    70  61  73 S10       30.09F
MOUNT PLEASANT CLOUDY    66  62  86 SE6       30.05S
MUSKEGON       CLOUDY    71  65  81 S9        30.00S
SOUTH HAVEN    CLOUDY    73  66  79 S9        30.03S
$$
MIZ016>042-241400-
NORTHERN LOWER MICHIGAN

CITY           SKY/WX    TMP DP  RH WIND       PRES   REMARKS
ALPENA         CLOUDY    68  60  75 S7        30.05F
BEAVER ISLAND  RAIN      65  64  97 SE8       29.95F
BELLAIRE       CLOUDY    67  61  82 S5        29.96F
CADILLAC       RAIN      67  61  81 S12G18    30.00F
CHARLEVOIX     LGT RAIN  64  63  96 SE9       29.98F
FRANKFORT      CLOUDY    69  65  85 S12       29.91F
GAYLORD        LGT RAIN  64  58  80 S10       30.02F
GRAYLING       CLOUDY    67  61  81 SE7       30.03F
HARBOR SPRINGS HVY RAIN  65  62  89 CALM      30.01R
HOUGHTON LAKE  CLOUDY    65  59  81 S8        30.05F
MANISTEE       CLOUDY    70  66  87 S7        29.93F
OSCODA         PTSUNNY   71  65  81 S10       30.07F
PELLSTON       CLOUDY    64  60  87 SE7       30.00F
ROGERS CITY    CLOUDY    66  60  79 S8        30.04F
TRAVERSE CITY  LGT RAIN  68  63  84 VRB6      29.93F
$$
MIZ007>008-015-241400-
EASTERN UPPER MICHIGAN

CITY           SKY/WX    TMP DP  RH WIND       PRES   REMARKS
MACKINAC ISLAN CLOUDY    65  60  82 S10G20    29.99S
NEWBERRY       CLOUDY    67  65  94 S9        29.94S
S. S. MARIE    CLOUDY    65  62  90 E3        29.98F
$$
MIZ004>006-011>014-085-241400-
CENTRAL UPPER MICHIGAN

CITY           SKY/WX    TMP DP  RH WIND       PRES   REMARKS
MANISTIQUE     RAIN      67  65  93 S10G18    29.90F
ESCANABA       LGT RAIN  69  68  96 S9        29.87F
MENOMINEE      LGT RAIN N/A N/A N/A MISG        N/A
SAWYER-GWINN   CLOUDY    64  64 100 S12       29.89F FOG
$$
MIZ001>003-009>011-084-241400-
WESTERN UPPER MICHIGAN

CITY           SKY/WX    TMP DP  RH WIND       PRES   REMARKS
IRON MOUNTAIN  LGT RAIN  66  64  93 SE7       29.85F FOG
HOUGHTON       CLOUDY    66  62  87 E5        29.84S
COPPER HARBOR    N/A     68  64  87 SW9G20    29.83F
IRONWOOD       CLOUDY    66  65  96 S6        29.83S
$$

ABBREVIATIONS USED IN REMARKS
   TC - TEMPERATURE IN CELSIUS
  WCI - WIND CHILL INDEX
   HX - HEAT INDEX
  VSB - VISIBILITY





USA.gov is the U.S. government's official web portal to all federal, state and local government web resources and services.